When you browse on this site, cookies collect data to enhance your experience and personalize the content and advertising you see.
Visit our Privacy Policy to learn more. By continuing to use the site, you agree to this use of cookies and data.
  • In United Kingdom
  • List of Countries
  • For 7 days
  • Water Temperature
  • Satellite Maps
  • Weather Map
  • Weather Widgets
  • user-avatar
    Login

    Hourly Weather Jasliq

    Today, 23 March, Saturday

    Time Temperature Precipitation Wind Pressure Humidity
    00:00 +12°C° 0.1 mm 2 mps 752 mmHg 68%
    01:00 +10°C° 0.1 mm 2 mps 752 mmHg 69%
    02:00 +10°C° 0 mm 2 mps 752 mmHg 70%
    03:00 +9°C° 0 mm 2 mps 752 mmHg 70%
    04:00 +9°C° 0 mm 1 mps 751 mmHg 71%
    05:00 +9°C° 0 mm 1 mps 752 mmHg 70%
    06:00 +10°C° 0 mm 1 mps 752 mmHg 69%
    07:00 +10°C° 0 mm 1 mps 752 mmHg 69%
    08:00 +11°C° 0 mm 1 mps 752 mmHg 64%
    09:00 +12°C° 0 mm 1 mps 752 mmHg 60%
    10:00 +12°C° 0 mm 3 mps 752 mmHg 61%
    11:00 +12°C° 0.2 mm 3 mps 752 mmHg 60%
    12:00 +13°C° 0.2 mm 3 mps 752 mmHg 60%
    13:00 +13°C° 0.2 mm 4 mps 752 mmHg 59%
    14:00 +13°C° 0.2 mm 4 mps 752 mmHg 58%
    15:00 +13°C° 0.2 mm 3 mps 752 mmHg 57%
    16:00 +13°C° 0.2 mm 3 mps 752 mmHg 56%
    17:00 +14°C° 0.1 mm 2 mps 752 mmHg 59%
    18:00 +13°C° 0.1 mm 2 mps 752 mmHg 63%
    19:00 +13°C° 0.1 mm 1 mps 752 mmHg 66%
    20:00 +12°C° 0 mm 1 mps 752 mmHg 67%
    21:00 +12°C° 0 mm 1 mps 752 mmHg 68%
    22:00 +12°C° 0 mm 2 mps 752 mmHg 69%
    23:00 +10°C° 0 mm 2 mps 752 mmHg 71%

    Tomorrow, 24 March, Sunday

    Time Temperature Precipitation Wind Pressure Humidity
    00:00 +10°C° 0 mm 2 mps 752 mmHg 73%
    01:00 +9°C° 0 mm 2 mps 752 mmHg 75%
    02:00 +9°C° 0 mm 2 mps 752 mmHg 76%
    03:00 +9°C° 0 mm 2 mps 752 mmHg 77%
    04:00 +9°C° 0 mm 2 mps 752 mmHg 78%
    05:00 +9°C° 0 mm 3 mps 752 mmHg 79%
    06:00 +9°C° 0 mm 3 mps 752 mmHg 80%
    07:00 +9°C° 0 mm 3 mps 752 mmHg 81%
    08:00 +10°C° 0 mm 4 mps 752 mmHg 74%
    09:00 +11°C° 0 mm 4 mps 752 mmHg 68%
    10:00 +13°C° 0 mm 4 mps 752 mmHg 61%
    11:00 +14°C° 0 mm 4 mps 752 mmHg 56%
    12:00 +15°C° 0 mm 4 mps 752 mmHg 51%
    13:00 +17°C° 0 mm 4 mps 752 mmHg 46%
    14:00 +17°C° 0 mm 4 mps 751 mmHg 44%
    15:00 +17°C° 0 mm 4 mps 751 mmHg 41%
    16:00 +18°C° 0 mm 4 mps 751 mmHg 39%
    17:00 +17°C° 0 mm 4 mps 750 mmHg 43%
    18:00 +14°C° 0 mm 4 mps 750 mmHg 48%
    19:00 +13°C° 0 mm 4 mps 750 mmHg 53%
    20:00 +13°C° 0 mm 4 mps 750 mmHg 53%
    21:00 +13°C° 0 mm 4 mps 750 mmHg 54%
    22:00 +12°C° 0 mm 4 mps 750 mmHg 55%
    23:00 +12°C° 0 mm 4 mps 750 mmHg 56%

    Day after tomorrow, 25 March, Monday

    Time Temperature Precipitation Wind Pressure Humidity
    00:00 +12°C° 0 mm 4 mps 749 mmHg 56%
    01:00 +11°C° 0 mm 4 mps 749 mmHg 56%
    02:00 +11°C° 0 mm 4 mps 749 mmHg 57%
    03:00 +11°C° 0 mm 4 mps 749 mmHg 58%
    04:00 +10°C° 0 mm 4 mps 749 mmHg 59%
    05:00 +10°C° 0 mm 4 mps 749 mmHg 60%
    06:00 +9°C° 0 mm 5 mps 749 mmHg 61%
    07:00 +9°C° 0 mm 5 mps 749 mmHg 62%
    08:00 +12°C° 0 mm 5 mps 749 mmHg 56%
    09:00 +14°C° 0 mm 6 mps 749 mmHg 50%
    10:00 +15°C° 0 mm 6 mps 749 mmHg 44%
    11:00 +16°C° 0 mm 5 mps 749 mmHg 41%
    12:00 +18°C° 0 mm 4 mps 749 mmHg 37%
    13:00 +19°C° 0 mm 3 mps 748 mmHg 34%
    14:00 +19°C° 0 mm 3 mps 748 mmHg 33%
    15:00 +20°C° 0 mm 2 mps 748 mmHg 32%
    16:00 +20°C° 0 mm 2 mps 747 mmHg 31%
    17:00 +18°C° 0 mm 3 mps 747 mmHg 38%
    18:00 +17°C° 0 mm 4 mps 747 mmHg 44%
    19:00 +14°C° 0 mm 5 mps 747 mmHg 51%
    20:00 +14°C° 0 mm 6 mps 747 mmHg 55%
    21:00 +12°C° 0 mm 7 mps 747 mmHg 59%
    22:00 +11°C° 0 mm 8 mps 747 mmHg 63%
    23:00 +10°C° 0 mm 8 mps 747 mmHg 67%

    26 March, Tuesday

    Time Temperature Precipitation Wind Pressure Humidity
    00:00 +10°C° 0 mm 8 mps 747 mmHg 70%
    01:00 +10°C° 0 mm 8 mps 747 mmHg 74%
    02:00 +9°C° 0 mm 8 mps 747 mmHg 75%
    03:00 +9°C° 0 mm 8 mps 747 mmHg 77%
    04:00 +7°C° 0 mm 9 mps 747 mmHg 79%
    05:00 +7°C° 0 mm 8 mps 747 mmHg 79%
    06:00 +7°C° 0 mm 8 mps 747 mmHg 79%
    07:00 +7°C° 0 mm 8 mps 748 mmHg 79%
    08:00 +7°C° 0 mm 8 mps 748 mmHg 77%
    09:00 +9°C° 0 mm 8 mps 748 mmHg 76%
    10:00 +9°C° 0 mm 8 mps 749 mmHg 74%
    11:00 +9°C° 0.1 mm 7 mps 749 mmHg 74%
    12:00 +9°C° 0.1 mm 7 mps 749 mmHg 73%
    13:00 +10°C° 0.1 mm 7 mps 749 mmHg 72%
    14:00 +10°C° 0 mm 7 mps 749 mmHg 70%
    15:00 +10°C° 0 mm 7 mps 749 mmHg 69%
    16:00 +11°C° 0 mm 7 mps 749 mmHg 67%
    17:00 +10°C° 0 mm 6 mps 750 mmHg 70%
    18:00 +9°C° 0 mm 5 mps 750 mmHg 72%
    19:00 +10°C° 0 mm 4 mps 751 mmHg 74%
    20:00 +8°C° 0 mm 4 mps 751 mmHg 75%
    21:00 +8°C° 0 mm 4 mps 751 mmHg 76%
    22:00 +8°C° 0 mm 4 mps 751 mmHg 77%
    23:00 +7°C° 0 mm 5 mps 751 mmHg 76%

    27 March, Wednesday

    Time Temperature Precipitation Wind Pressure Humidity
    00:00 +7°C° 0 mm 5 mps 751 mmHg 76%
    01:00 +5°C° 0 mm 6 mps 750 mmHg 75%
    02:00 +5°C° 0 mm 6 mps 750 mmHg 76%
    03:00 +4°C° 0 mm 6 mps 750 mmHg 78%
    04:00 +4°C° 0 mm 6 mps 750 mmHg 79%
    05:00 +4°C° 0 mm 7 mps 750 mmHg 80%
    06:00 +4°C° 0 mm 7 mps 750 mmHg 82%
    07:00 +4°C° 0 mm 8 mps 750 mmHg 83%
    08:00 +4°C° 0 mm 8 mps 750 mmHg 83%
    09:00 +4°C° 0 mm 8 mps 750 mmHg 83%
    10:00 +4°C° 0 mm 8 mps 750 mmHg 83%
    11:00 +5°C° 0 mm 8 mps 750 mmHg 81%
    12:00 +5°C° 0 mm 8 mps 750 mmHg 78%
    13:00 +6°C° 0 mm 8 mps 749 mmHg 76%
    14:00 +6°C° 0.3 mm 7 mps 749 mmHg 78%
    15:00 +5°C° 0.3 mm 7 mps 749 mmHg 79%
    16:00 +5°C° 0.3 mm 6 mps 749 mmHg 81%
    17:00 +5°C° 0.4 mm 6 mps 749 mmHg 83%
    18:00 +6°C° 0.4 mm 5 mps 748 mmHg 84%
    19:00 +6°C° 0.4 mm 5 mps 748 mmHg 86%
    20:00 +6°C° 0.3 mm 4 mps 748 mmHg 86%
    21:00 +7°C° 0.3 mm 2 mps 748 mmHg 87%
    22:00 +8°C° 0.3 mm 1 mps 748 mmHg 87%
    23:00 +8°C° 0.2 mm 1 mps 747 mmHg 88%

    28 March, Thursday

    Time Temperature Precipitation Wind Pressure Humidity
    00:00 +7°C° 0.2 mm 2 mps 747 mmHg 89%
    01:00 +7°C° 0.2 mm 2 mps 746 mmHg 90%
    02:00 +7°C° 0.3 mm 3 mps 746 mmHg 91%
    03:00 +7°C° 0.3 mm 3 mps 746 mmHg 91%
    04:00 +6°C° 0.3 mm 4 mps 746 mmHg 91%
    05:00 +6°C° 0.1 mm 4 mps 746 mmHg 91%
    06:00 +6°C° 0.1 mm 5 mps 746 mmHg 91%
    07:00 +6°C° 0.1 mm 5 mps 746 mmHg 91%
    08:00 +6°C° 0.1 mm 5 mps 747 mmHg 88%
    09:00 +7°C° 0.1 mm 5 mps 747 mmHg 84%
    10:00 +8°C° 0.1 mm 6 mps 747 mmHg 80%
    11:00 +8°C° 0 mm 6 mps 748 mmHg 78%
    12:00 +8°C° 0 mm 6 mps 748 mmHg 76%
    13:00 +9°C° 0 mm 7 mps 748 mmHg 74%
    14:00 +9°C° 0 mm 7 mps 749 mmHg 74%
    15:00 +9°C° 0 mm 6 mps 749 mmHg 73%
    16:00 +9°C° 0 mm 6 mps 749 mmHg 72%
    17:00 +8°C° 0 mm 6 mps 750 mmHg 73%
    18:00 +8°C° 0 mm 5 mps 750 mmHg 73%
    19:00 +8°C° 0 mm 4 mps 751 mmHg 73%
    20:00 +8°C° 0 mm 3 mps 751 mmHg 74%
    21:00 +8°C° 0 mm 3 mps 751 mmHg 76%
    22:00 +8°C° 0 mm 2 mps 752 mmHg 77%
    23:00 +7°C° 0 mm 2 mps 752 mmHg 76%
    Show more